Regional Weather Roundup
Issued by NWS

Home | Current Version | Previous Version | Text Only | Print | Product List | Glossary Off
Versions: 1 2 3 4 5 6 7 8 9 10 11 12 13 14 15 16 17 18 19 20 21 22 23 24 25 26 27 28 29 30 31 32 33 34 35 36 37 38 39 40 41 42 43 44 45 46 47 48 49 50

000
ASUS43 KBIS 020510
RWRND

NORTH DAKOTA REGIONAL WEATHER ROUNDUP
NATIONAL WEATHER SERVICE BISMARCK ND
1200 AM CDT WED SEP 02 2015

NOTE: "FAIR" INDICATES FEW OR NO CLOUDS BELOW 12,000 FEET WITH NO
SIGNIFICANT WEATHER AND/OR OBSTRUCTIONS TO VISIBILITY.


NDZ001>003-009>011-017-020600-
NORTHWEST NORTH DAKOTA

CITY           SKY/WX    TMP DP  RH WIND       PRES   REMARKS
WILLISTON      CLEAR     66  40  38 N7        29.79F
MINOT          CLEAR     69  59  70 SE5       29.77S
MINOT AFB      CLEAR     67  63  84 S7        29.76S
$$

NDZ018>021-031>035-040>046-020600-
SOUTHWEST NORTH DAKOTA

CITY           SKY/WX    TMP DP  RH WIND       PRES   REMARKS
BISMARCK       CLEAR     73  67  81 E6        29.79F
DICKINSON      CLEAR     63  55  75 S8        29.80F
GARRISON         N/A     68  62  81 E5        29.79F
HETTINGER ARPT CLEAR     57  52  83 CALM      29.84F
$$

NDZ004>008-012>016-024-026-027-054-020600-
NORTHEAST NORTH DAKOTA

CITY           SKY/WX    TMP DP  RH WIND       PRES   REMARKS
GRAND FORKS    CLEAR     69  57  65 SE6       29.82F
GRND FRKS AFB  CLEAR     65  57  75 SE3       29.82F
DEVILS LAKE    CLEAR     70  57  64 SE7       29.82S
$$

NDZ022-023-025-028>030-036>039-047>053-020600-
SOUTHEAST NORTH DAKOTA

CITY           SKY/WX    TMP DP  RH WIND       PRES   REMARKS
FARGO          CLEAR     75  70  84 SE10      29.83S
JAMESTOWN      CLEAR     70  67  90 SE5       29.83S
$$




USA.gov is the U.S. government's official web portal to all federal, state and local government web resources and services.